Weather - Helsinki Query any day in the database

Current weather  

Weather data for a selected day (2006-01-01 -2020-10-31)
Enter date:     <-     scroll days         ->
day curves
Low temperature°C -22.009:20
High temperature°C -17.017:20
Low wind chill°C -3509:20
Average temperature°C -19.3 
High wind speed (10 min) m/s 10.017:50
Low pressurehPa 1003.023:50
High pressurehPa 1010.009:20
Low R.H% 5414:20
High R.H% 7023:50
Day weather data as a table
Date Time Temp
°C
Chill
°C
Pressure
hPA
Wind
m/s
Hum
%
Precip
mm
2010-02-20 23:50:00 -19.0  -31.1  1003.0 8.0 70 -
2010-02-20 23:20:00 -19.0  -31.1  1003.0 8.0 70 -
2010-02-20 22:50:00 -19.0  -31.7  1004.0 9.0 64 -
2010-02-20 22:20:00 -19.0  -31.1  1004.0 8.0 64 -
2010-02-20 21:50:00 -19.0  -31.1  1004.0 8.0 64 -
2010-02-20 21:20:00 -19.0  -31.7  1004.0 9.0 64 -
2010-02-20 20:50:00 -19.0  -31.1  1005.0 8.0 64 -
2010-02-20 20:20:00 -19.0  -31.1  1005.0 8.0 64 -
2010-02-20 19:50:00 -19.0  -31.7  1005.0 9.0 64 -
2010-02-20 19:20:00 -18.0  -29.8  1006.0 8.0 54 -
2010-02-20 18:50:00 -18.0  -29.8  1006.0 8.0 59 -
2010-02-20 18:20:00 -18.0  -30.4  1006.0 9.0 59 -
2010-02-20 17:50:00 -18.0  -30.9  1006.0 10.0 59 -
2010-02-20 17:20:00 -17.0  -29.6  1006.0 10.0 59 -
2010-02-20 16:50:00 -17.0  -29.6  1006.0 10.0 54 -
2010-02-20 16:20:00 -17.0  -29.6  1007.0 10.0 59 -
2010-02-20 15:50:00 -17.0  -29.0  1007.0 9.0 54 -
2010-02-20 15:20:00 -17.0  -28.5  1007.0 8.0 59 -
2010-02-20 14:50:00 -17.0  -29.0  1007.0 9.0 54 -
2010-02-20 14:20:00 -17.0  -28.5  1008.0 8.0 54 -
2010-02-20 13:50:00 -17.0  -28.5  1008.0 8.0 59 -
2010-02-20 13:20:00 -18.0  -30.4  1008.0 9.0 59 -
2010-02-20 12:50:00 -19.0  -31.7  1008.0 9.0 64 -
2010-02-20 12:20:00 -19.0  -31.7  1008.0 9.0 64 -
2010-02-20 11:50:00 -20.0  -33.0  1008.0 9.0 64 -
2010-02-20 11:20:00 -20.0  -32.4  1009.0 8.0 64 -
2010-02-20 10:50:00 -20.0  -33.0  1009.0 9.0 58 -
2010-02-20 10:20:00 -21.0  -33.7  1009.0 8.0 64 -
2010-02-20 09:50:00 -21.0  -32.9  1009.0 7.0 58 -
2010-02-20 09:20:00 -22.0  -35.0  1010.0 8.0 63 -
2010-02-20 08:50:00 -22.0  -34.2  1010.0 7.0 63 -
2010-02-20 08:20:00 -22.0  -35.0  1009.0 8.0 63 -
2010-02-20 07:50:00 -22.0  -35.0  1009.0 8.0 63 -
2010-02-20 07:20:00 -22.0  -35.0  1009.0 8.0 63 -
2010-02-20 06:50:00 -22.0  -35.0  1009.0 8.0 63 -
2010-02-20 06:20:00 -21.0  -32.9  1009.0 7.0 64 -
2010-02-20 05:50:00 -21.0  -32.9  1010.0 7.0 64 -
2010-02-20 05:20:00 -21.0  -32.9  1010.0 7.0 64 -
2010-02-20 04:50:00 -21.0  -32.9  1010.0 7.0 70 -
2010-02-20 04:20:00 -20.0  -31.7  1010.0 7.0 64 -
2010-02-20 03:50:00 -20.0  -31.7  1010.0 7.0 64 -
2010-02-20 03:20:00 -20.0  -30.9  1010.0 6.0 64 -
2010-02-20 02:50:00 -20.0  -30.9  1010.0 6.0 70 -
2010-02-20 02:20:00 -19.0  -30.4  1009.0 7.0 64 -
2010-02-20 01:50:00 -19.0  -29.6  1009.0 6.0 64 -
2010-02-20 01:20:00 -19.0  -30.4  1009.0 7.0 70 -
2010-02-20 00:50:00 -19.0  -30.4  1009.0 7.0 70 -
2010-02-20 00:20:00 -18.0  -29.1  1009.0 7.0 64 -
Unit conversions: